CYBG

CFB Bagotville  Airport

Bagotville, Quebec, Canada
Issued Wind Visibility Ceiling Temperature Dew Point Humidity Barometer
Nov-19
23:00 UTC
270°
17 KTS
Gust 22 KTS
5 miles Broken
1,200' AGL
-2° C
28° F
-4° C
25° F
86% 29.2" Hg
989.5 hPa
MVFR
Nov-19
22:36 UTC
270°
15 KTS
Gust 24 KTS
5 miles Broken
1,100' AGL
-2° C
28° F
-4° C
25° F
86% 29.19" Hg
989.2 hPa
MVFR
Nov-19
22:14 UTC
270°
19 KTS
Gust 25 KTS
2 1/2 miles Broken
1,100' AGL
-2° C
28° F
-4° C
25° F
86% 29.17" Hg
988.6 hPa
IFR
Nov-19
21:25 UTC
270°
18 KTS
1 miles Vertical visibility
1,000' AGL
-2° C
28° F
-3° C
27° F
93% 29.14" Hg
987.7 hPa
LIFR
Nov-19
21:16 UTC
270°
15 KTS
Gust 25 KTS
2 miles Overcast
1,500' AGL
-2° C
28° F
-3° C
27° F
93% 29.14" Hg
987.5 hPa
IFR
Nov-19
21:00 UTC
270°
16 KTS
3 miles Broken
700' AGL
-2° C
28° F
-3° C
27° F
93% 29.13" Hg
987.2 hPa
IFR
Nov-19
20:52 UTC
270°
15 KTS
3 miles Broken
700' AGL
-2° C
28° F
-3° C
27° F
93% 29.12" Hg
987.1 hPa
IFR
Nov-19
20:00 UTC
270°
12 KTS
1 1/2 miles Overcast
800' AGL
-1° C
30° F
-2° C
28° F
93% 29.1" Hg
986.3 hPa
IFR
Nov-19
19:39 UTC
280°
11 KTS
Gust 16 KTS
3 miles Overcast
800' AGL
-1° C
30° F
-3° C
27° F
86% 29.09" Hg
985.8 hPa
IFR
Nov-19
19:00 UTC
290°
11 KTS
3/4 miles Vertical visibility
300' AGL
C
32° F
-2° C
28° F
87% 29.06" Hg
984.7 hPa
LIFR
Nov-19
18:44 UTC
300°
5 KTS
3/4 miles Vertical visibility
700' AGL
C
32° F
-2° C
28° F
87% 29.05" Hg
984.6 hPa
LIFR
Nov-19
18:00 UTC
1 1/4 miles Overcast
2,000' AGL
C
32° F
-2° C
28° F
87% 29.04" Hg
984.3 hPa
IFR
Nov-19
17:00 UTC
110°
3 KTS
3/4 miles Vertical visibility
800' AGL
-1° C
30° F
-2° C
28° F
93% 29.06" Hg
984.8 hPa
LIFR
Nov-19
16:55 UTC
110°
3 KTS
3/4 miles Vertical visibility
800' AGL
-1° C
30° F
-2° C
28° F
93% 29.06" Hg
984.8 hPa
LIFR
Nov-19
16:46 UTC
120°
4 KTS
3/4 miles Vertical visibility
800' AGL
-1° C
30° F
-2° C
28° F
93% 29.06" Hg
984.9 hPa
LIFR
Nov-19
16:12 UTC
120°
7 KTS
1 miles Vertical visibility
700' AGL
-1° C
30° F
-3° C
27° F
86% 29.07" Hg
985.2 hPa
LIFR
Nov-19
16:00 UTC
110°
6 KTS
1/63 miles Vertical visibility
600' AGL
-1° C
30° F
-3° C
27° F
86% 29.07" Hg
985.3 hPa
LIFR
Nov-19
15:24 UTC
110°
9 KTS
1/2 miles Vertical visibility
500' AGL
-1° C
30° F
-3° C
27° F
86% 29.09" Hg
986 hPa
LIFR
Nov-19
15:00 UTC
110°
9 KTS
3/4 miles Vertical visibility
600' AGL
-1° C
30° F
-3° C
27° F
86% 29.11" Hg
986.6 hPa
LIFR
Nov-19
14:38 UTC
120°
9 KTS
1 miles Vertical visibility
800' AGL
-1° C
30° F
-3° C
27° F
86% 29.13" Hg
987.3 hPa
LIFR
Nov-19
14:14 UTC
110°
7 KTS
1 miles Overcast
3,000' AGL
-1° C
30° F
-3° C
27° F
86% 29.14" Hg
987.5 hPa
IFR
Nov-19
13:43 UTC
110°
11 KTS
5 miles Overcast
3,500' AGL
-1° C
30° F
-4° C
25° F
80% 29.14" Hg
987.8 hPa
MVFR
Nov-19
13:25 UTC
120°
13 KTS
Gust 18 KTS
5 miles Overcast
3,500' AGL
-1° C
30° F
-2° C
28° F
93% 29.16" Hg
988.3 hPa
MVFR
Nov-19
13:00 UTC
110°
11 KTS
Gust 16 KTS
15 miles Overcast
3,500' AGL
-1° C
30° F
-3° C
27° F
86% 29.17" Hg
988.7 hPa
VFR
Nov-19
12:39 UTC
110°
15 KTS
Gust 20 KTS
20 miles Overcast
3,500' AGL
-1° C
30° F
-4° C
25° F
80% 29.19" Hg
989.3 hPa
VFR
Nov-19
12:00 UTC
110°
13 KTS
Gust 19 KTS
15 miles Overcast
3,500' AGL
-2° C
28° F
-4° C
25° F
86% 29.21" Hg
990.2 hPa
VFR
Nov-19
11:46 UTC
100°
14 KTS
15 miles Overcast
4,000' AGL
-2° C
28° F
-4° C
25° F
86% 29.22" Hg
990.5 hPa
VFR
Nov-19
11:00 UTC
100°
10 KTS
Gust 16 KTS
25 miles Overcast
4,000' AGL
-2° C
28° F
-5° C
23° F
80% 29.25" Hg
991.3 hPa
VFR
Nov-19
10:00 UTC
100°
15 KTS
Gust 20 KTS
25 miles Overcast
3,000' AGL
-2° C
28° F
-5° C
23° F
80% 29.26" Hg
992 hPa
MVFR
Nov-19
09:00 UTC
100°
11 KTS
Gust 18 KTS
15 miles Overcast
6,000' AGL
-3° C
27° F
-5° C
23° F
86% 29.32" Hg
993.9 hPa
VFR
Nov-19
08:00 UTC
100°
17 KTS
Gust 22 KTS
15 miles Overcast
5,500' AGL
-3° C
27° F
-6° C
21° F
80% 29.34" Hg
994.5 hPa
VFR
Nov-19
07:20 UTC
100°
11 KTS
15 miles Overcast
7,000' AGL
-3° C
27° F
-6° C
21° F
80% 29.42" Hg
997.2 hPa
VFR
Nov-19
07:00 UTC
110°
12 KTS
25 miles Overcast
6,000' AGL
-3° C
27° F
-6° C
21° F
80% 29.43" Hg
997.7 hPa
VFR
Nov-19
06:00 UTC
100°
11 KTS
25 miles Overcast
7,000' AGL
-3° C
27° F
-8° C
18° F
69% 29.45" Hg
998.3 hPa
VFR
Nov-19
05:00 UTC
100°
17 KTS
25 miles Overcast
8,000' AGL
-4° C
25° F
-9° C
16° F
69% 29.46" Hg
998.7 hPa
VFR
Nov-19
04:00 UTC
090°
14 KTS
Gust 20 KTS
25 miles Overcast
8,000' AGL
-3° C
27° F
-6° C
21° F
80% 29.52" Hg
1000.7 hPa
VFR
Nov-19
03:00 UTC
090°
13 KTS
25 miles Overcast
8,400' AGL
-3° C
27° F
-6° C
21° F
80% 29.55" Hg
1001.6 hPa
VFR
Nov-19
02:00 UTC
100°
12 KTS
Gust 17 KTS
25 miles Overcast
11,000' AGL
-3° C
27° F
-6° C
21° F
80% 29.57" Hg
1002.5 hPa
VFR
Nov-19
01:00 UTC
100°
10 KTS
Gust 17 KTS
25 miles Overcast
8,100' AGL
-3° C
27° F
-6° C
21° F
80% 29.59" Hg
1003.2 hPa
VFR